Year,Month,Day,Hour,Minute,Value (Times are PST for temperature in C)
2017,06,23,00,00,11.10
2017,06,23,00,01,11.10
2017,06,23,00,02,11.10
2017,06,23,00,03,11.10
2017,06,23,00,04,11.10
2017,06,23,00,05,10.90
2017,06,23,00,06,10.90
2017,06,23,00,07,10.90
2017,06,23,00,08,11.00
2017,06,23,00,09,11.10
2017,06,23,00,10,11.10
2017,06,23,00,11,11.10
2017,06,23,00,12,11.10
2017,06,23,00,13,11.10
2017,06,23,00,14,11.20
2017,06,23,00,15,11.20
2017,06,23,00,16,11.20
2017,06,23,00,17,11.20
2017,06,23,00,18,11.20
2017,06,23,00,19,11.30
2017,06,23,00,20,11.30
2017,06,23,00,21,11.30
2017,06,23,00,22,11.30
2017,06,23,00,23,11.30
2017,06,23,00,24,11.30
2017,06,23,00,25,11.20
2017,06,23,00,26,11.20
2017,06,23,00,27,11.20
2017,06,23,00,28,11.20
2017,06,23,00,29,11.20
2017,06,23,00,30,11.20
2017,06,23,00,31,11.20
2017,06,23,00,32,11.20
2017,06,23,00,33,11.10
2017,06,23,00,34,11.10
2017,06,23,00,35,11.10
2017,06,23,00,36,11.10
2017,06,23,00,37,11.10
2017,06,23,00,38,11.00
2017,06,23,00,39,10.90
2017,06,23,00,40,10.90
2017,06,23,00,41,10.90
2017,06,23,00,42,10.90
2017,06,23,00,43,10.80
2017,06,23,00,44,10.80
2017,06,23,00,45,10.80
2017,06,23,00,46,10.70
2017,06,23,00,47,10.70
2017,06,23,00,48,10.70
2017,06,23,00,49,10.60
2017,06,23,00,50,10.60
2017,06,23,00,51,10.60
2017,06,23,00,52,10.60
2017,06,23,00,53,10.60
2017,06,23,00,54,10.60
2017,06,23,00,55,10.60
2017,06,23,00,56,10.50
2017,06,23,00,57,10.40
2017,06,23,00,58,10.40
2017,06,23,00,59,10.40
2017,06,23,01,00,10.40
2017,06,23,01,01,10.40
2017,06,23,01,02,10.40
2017,06,23,01,03,10.40
2017,06,23,01,04,10.40
2017,06,23,01,05,10.50
2017,06,23,01,06,10.60
2017,06,23,01,07,10.60
2017,06,23,01,08,10.60
2017,06,23,01,09,10.60
2017,06,23,01,10,10.60
2017,06,23,01,11,10.60
2017,06,23,01,12,10.60
2017,06,23,01,13,10.60
2017,06,23,01,14,10.60
2017,06,23,01,15,10.70
2017,06,23,01,16,10.70
2017,06,23,01,17,10.60
2017,06,23,01,18,10.60
2017,06,23,01,19,10.60
2017,06,23,01,20,10.60
2017,06,23,01,21,10.60
2017,06,23,01,22,10.60
2017,06,23,01,23,10.60
2017,06,23,01,24,10.60
2017,06,23,01,25,10.60
2017,06,23,01,26,10.60
2017,06,23,01,27,10.50
2017,06,23,01,28,10.40
2017,06,23,01,29,10.40
2017,06,23,01,30,10.40
2017,06,23,01,31,10.40
2017,06,23,01,32,10.40
2017,06,23,01,33,10.40
2017,06,23,01,34,10.40
2017,06,23,01,35,10.40
2017,06,23,01,36,10.40
2017,06,23,01,37,10.40
2017,06,23,01,38,10.40
2017,06,23,01,39,10.40
2017,06,23,01,40,10.30
2017,06,23,01,41,10.30
2017,06,23,01,42,10.30
2017,06,23,01,43,10.30
2017,06,23,01,44,10.30
2017,06,23,01,45,10.30
2017,06,23,01,46,10.30
2017,06,23,01,47,10.30
2017,06,23,01,48,10.30
2017,06,23,01,49,10.30
2017,06,23,01,50,10.30
2017,06,23,01,51,10.40
2017,06,23,01,52,10.40
2017,06,23,01,53,10.40
2017,06,23,01,54,10.40
2017,06,23,01,55,10.40
2017,06,23,01,56,10.40
2017,06,23,01,57,10.40
2017,06,23,01,58,10.40
2017,06,23,01,59,10.40
2017,06,23,02,00,10.40
2017,06,23,02,01,10.40
2017,06,23,02,02,10.40
2017,06,23,02,03,10.40
2017,06,23,02,04,10.40
2017,06,23,02,05,10.40
2017,06,23,02,06,10.40
2017,06,23,02,07,10.40
2017,06,23,02,08,10.40
2017,06,23,02,09,10.30
2017,06,23,02,10,10.30
2017,06,23,02,11,10.30
2017,06,23,02,12,10.30
2017,06,23,02,13,10.30
2017,06,23,02,14,10.20
2017,06,23,02,15,10.20
2017,06,23,02,16,10.20
2017,06,23,02,17,10.20
2017,06,23,02,18,10.20
2017,06,23,02,19,10.20
2017,06,23,02,20,10.20
2017,06,23,02,21,10.20
2017,06,23,02,22,10.10
2017,06,23,02,23,10.10
2017,06,23,02,24,10.10
2017,06,23,02,25,10.10
2017,06,23,02,26,10.10
2017,06,23,02,27,10.10
2017,06,23,02,28,10.10
2017,06,23,02,29,10.10
2017,06,23,02,30,10.10
2017,06,23,02,31,10.10
2017,06,23,02,32,10.10
2017,06,23,02,33,10.10
2017,06,23,02,34,10.10
2017,06,23,02,35,10.10
2017,06,23,02,36,10.10
2017,06,23,02,37,10.10
2017,06,23,02,38,10.10
2017,06,23,02,39,10.10
2017,06,23,02,40,10.10
2017,06,23,02,41,10.10
2017,06,23,02,42,10.10
2017,06,23,02,43,10.10
2017,06,23,02,44,10.10
2017,06,23,02,45,10.10
2017,06,23,02,46,10.10
2017,06,23,02,47,10.10
2017,06,23,02,48,10.10
2017,06,23,02,49,10.10
2017,06,23,02,50,10.10
2017,06,23,02,51,10.10
2017,06,23,02,52,10.10
2017,06,23,02,53,10.00
2017,06,23,02,54,9.90
2017,06,23,02,55,9.90
2017,06,23,02,56,9.90
2017,06,23,02,57,9.90
2017,06,23,02,58,9.90
2017,06,23,02,59,9.90
2017,06,23,03,00,9.90
2017,06,23,03,01,9.90
2017,06,23,03,02,9.90
2017,06,23,03,03,9.90
2017,06,23,03,04,9.90
2017,06,23,03,05,9.90
2017,06,23,03,06,9.90
2017,06,23,03,07,9.90
2017,06,23,03,08,9.90
2017,06,23,03,09,9.90
2017,06,23,03,10,9.90
2017,06,23,03,11,9.90
2017,06,23,03,12,9.90
2017,06,23,03,13,9.80
2017,06,23,03,14,9.80
2017,06,23,03,15,9.80
2017,06,23,03,16,9.80
2017,06,23,03,17,9.80
2017,06,23,03,18,9.70
2017,06,23,03,19,9.70
2017,06,23,03,20,9.70
2017,06,23,03,21,9.70
2017,06,23,03,22,9.70
2017,06,23,03,23,9.70
2017,06,23,03,24,9.70
2017,06,23,03,25,9.70
2017,06,23,03,26,9.70
2017,06,23,03,27,9.70
2017,06,23,03,28,9.70
2017,06,23,03,29,9.70
2017,06,23,03,30,9.70
2017,06,23,03,31,9.70
2017,06,23,03,32,9.70
2017,06,23,03,33,9.70
2017,06,23,03,34,9.70
2017,06,23,03,35,9.70
2017,06,23,03,36,9.70
2017,06,23,03,37,9.70
2017,06,23,03,38,9.70
2017,06,23,03,39,9.70
2017,06,23,03,40,9.70
2017,06,23,03,41,9.70
2017,06,23,03,42,9.70
2017,06,23,03,43,9.70
2017,06,23,03,44,9.70
2017,06,23,03,45,9.70
2017,06,23,03,46,9.70
2017,06,23,03,47,9.70
2017,06,23,03,48,9.70
2017,06,23,03,49,9.70
2017,06,23,03,50,9.60
2017,06,23,03,51,9.60
2017,06,23,03,52,9.60
2017,06,23,03,53,9.60
2017,06,23,03,54,9.60
2017,06,23,03,55,9.60
2017,06,23,03,56,9.50
2017,06,23,03,57,9.50
2017,06,23,03,58,9.50
2017,06,23,03,59,9.50
2017,06,23,04,00,9.50
2017,06,23,04,01,9.50
2017,06,23,04,02,9.50
2017,06,23,04,03,9.50
2017,06,23,04,04,9.40
2017,06,23,04,05,9.40
2017,06,23,04,06,9.40
2017,06,23,04,07,9.40
2017,06,23,04,08,9.40
2017,06,23,04,09,9.40
2017,06,23,04,10,9.40
2017,06,23,04,11,9.40
2017,06,23,04,12,9.30
2017,06,23,04,13,9.30
2017,06,23,04,14,9.30
2017,06,23,04,15,9.20
2017,06,23,04,16,9.20
2017,06,23,04,17,9.20
2017,06,23,04,18,9.20
2017,06,23,04,19,9.20
2017,06,23,04,20,9.20
2017,06,23,04,21,9.20
2017,06,23,04,22,9.20
2017,06,23,04,23,9.10
2017,06,23,04,24,9.10
2017,06,23,04,25,9.10
2017,06,23,04,26,9.10
2017,06,23,04,27,9.10
2017,06,23,04,28,9.10
2017,06,23,04,29,9.10
2017,06,23,04,30,9.10
2017,06,23,04,31,9.10
2017,06,23,04,32,9.10
2017,06,23,04,33,9.20
2017,06,23,04,34,9.20
2017,06,23,04,35,9.20
2017,06,23,04,36,9.20
2017,06,23,04,37,9.20
2017,06,23,04,38,9.20
2017,06,23,04,39,9.20
2017,06,23,04,40,9.30
2017,06,23,04,41,9.30
2017,06,23,04,42,9.30
2017,06,23,04,43,9.40
2017,06,23,04,44,9.40
2017,06,23,04,45,9.40
2017,06,23,04,46,9.50
2017,06,23,04,47,9.50
2017,06,23,04,48,9.50
2017,06,23,04,49,9.60
2017,06,23,04,50,9.60
2017,06,23,04,51,9.60
2017,06,23,04,52,9.60
2017,06,23,04,53,9.70
2017,06,23,04,54,9.70
2017,06,23,04,55,9.70
2017,06,23,04,56,9.70
2017,06,23,04,57,9.80
2017,06,23,04,58,9.80
2017,06,23,04,59,9.90
2017,06,23,05,00,9.90
2017,06,23,05,01,9.90
2017,06,23,05,02,9.90
2017,06,23,05,03,10.00
2017,06,23,05,04,10.10
2017,06,23,05,05,10.10
2017,06,23,05,06,10.10
2017,06,23,05,07,10.20
2017,06,23,05,08,10.20
2017,06,23,05,09,10.20
2017,06,23,05,10,10.20
2017,06,23,05,11,10.20
2017,06,23,05,12,10.20
2017,06,23,05,13,10.20
2017,06,23,05,14,10.20
2017,06,23,05,15,10.20
2017,06,23,05,16,10.20
2017,06,23,05,17,10.20
2017,06,23,05,18,10.20
2017,06,23,05,19,10.20
2017,06,23,05,20,10.20
2017,06,23,05,21,10.20
2017,06,23,05,22,10.30
2017,06,23,05,23,10.30
2017,06,23,05,24,10.30
2017,06,23,05,25,10.30
2017,06,23,05,26,10.30
2017,06,23,05,27,10.30
2017,06,23,05,28,10.30
2017,06,23,05,29,10.30
2017,06,23,05,30,10.30
2017,06,23,05,31,10.20
2017,06,23,05,32,10.20
2017,06,23,05,33,10.20
2017,06,23,05,34,10.20
2017,06,23,05,35,10.20
2017,06,23,05,36,10.20
2017,06,23,05,37,10.20
2017,06,23,05,38,10.20
2017,06,23,05,39,10.20
2017,06,23,05,40,10.20
2017,06,23,05,41,10.30
2017,06,23,05,42,10.20
2017,06,23,05,43,10.20
2017,06,23,05,44,10.20
2017,06,23,05,45,10.20
2017,06,23,05,46,10.20
2017,06,23,05,47,10.20
2017,06,23,05,48,10.30
2017,06,23,05,49,10.30
2017,06,23,05,50,10.30
2017,06,23,05,51,10.30
2017,06,23,05,52,10.30
2017,06,23,05,53,10.30
2017,06,23,05,54,10.40
2017,06,23,05,55,10.40
2017,06,23,05,56,10.50
2017,06,23,05,57,10.60
2017,06,23,05,58,10.70
2017,06,23,05,59,10.80
2017,06,23,06,00,10.90
2017,06,23,06,01,11.00
2017,06,23,06,02,11.10
2017,06,23,06,03,11.20
2017,06,23,06,04,11.30
2017,06,23,06,05,11.40
2017,06,23,06,06,11.40
2017,06,23,06,07,11.50
2017,06,23,06,08,11.60
2017,06,23,06,09,11.70
2017,06,23,06,10,11.80
2017,06,23,06,11,11.80
2017,06,23,06,12,11.80
2017,06,23,06,13,11.90
2017,06,23,06,14,12.00
2017,06,23,06,15,12.00
2017,06,23,06,16,12.10
2017,06,23,06,17,12.20
2017,06,23,06,18,12.20
2017,06,23,06,19,12.30
2017,06,23,06,20,12.30
2017,06,23,06,21,12.30
2017,06,23,06,22,12.40
2017,06,23,06,23,12.40
2017,06,23,06,24,12.50
2017,06,23,06,25,12.50
2017,06,23,06,26,12.50
2017,06,23,06,27,12.50
2017,06,23,06,28,12.60
2017,06,23,06,29,12.60
2017,06,23,06,30,12.60
2017,06,23,06,31,12.60
2017,06,23,06,32,12.70
2017,06,23,06,33,12.70
2017,06,23,06,34,12.70
2017,06,23,06,35,12.70
2017,06,23,06,36,12.70
2017,06,23,06,37,12.70
2017,06,23,06,38,12.80
2017,06,23,06,39,12.80
2017,06,23,06,40,12.80
2017,06,23,06,41,12.80
2017,06,23,06,42,12.90
2017,06,23,06,43,12.90
2017,06,23,06,44,12.90
2017,06,23,06,45,13.00
2017,06,23,06,46,13.00
2017,06,23,06,47,13.00
2017,06,23,06,48,13.00
2017,06,23,06,49,13.00
2017,06,23,06,50,13.10
2017,06,23,06,51,13.10
2017,06,23,06,52,13.10
2017,06,23,06,53,13.10
2017,06,23,06,54,13.10
2017,06,23,06,55,13.10
2017,06,23,06,56,13.10
2017,06,23,06,57,13.10
2017,06,23,06,58,13.20
2017,06,23,06,59,13.20
2017,06,23,07,00,13.20
2017,06,23,07,01,13.20
2017,06,23,07,02,13.20
2017,06,23,07,03,13.20
2017,06,23,07,04,13.30
2017,06,23,07,05,13.30
2017,06,23,07,06,13.30
2017,06,23,07,07,13.30
2017,06,23,07,08,13.40
2017,06,23,07,09,13.40
2017,06,23,07,10,13.40
2017,06,23,07,11,13.40
2017,06,23,07,12,13.40
2017,06,23,07,13,13.50
2017,06,23,07,14,13.50
2017,06,23,07,15,13.50
2017,06,23,07,16,13.50
2017,06,23,07,17,13.50
2017,06,23,07,18,13.50
2017,06,23,07,19,13.50
2017,06,23,07,20,13.50
2017,06,23,07,21,13.50
2017,06,23,07,22,13.50
2017,06,23,07,23,13.50
2017,06,23,07,24,13.50
2017,06,23,07,25,13.60
2017,06,23,07,26,13.70
2017,06,23,07,27,13.70
2017,06,23,07,28,13.70
2017,06,23,07,29,13.70
2017,06,23,07,30,13.80
2017,06,23,07,31,13.80
2017,06,23,07,32,13.90
2017,06,23,07,33,13.90
2017,06,23,07,34,14.00
2017,06,23,07,35,14.00
2017,06,23,07,36,14.10
2017,06,23,07,37,14.20
2017,06,23,07,38,14.30
2017,06,23,07,39,14.50
2017,06,23,07,40,14.60
2017,06,23,07,41,14.80
2017,06,23,07,42,15.00
2017,06,23,07,43,15.20
2017,06,23,07,44,15.30
2017,06,23,07,45,15.40
2017,06,23,07,46,15.50
2017,06,23,07,47,15.60
2017,06,23,07,48,15.80
2017,06,23,07,49,15.90
2017,06,23,07,50,15.90
2017,06,23,07,51,16.00
2017,06,23,07,52,16.10
2017,06,23,07,53,16.10
2017,06,23,07,54,16.10
2017,06,23,07,55,16.20
2017,06,23,07,56,16.20
2017,06,23,07,57,16.20
2017,06,23,07,58,16.30
2017,06,23,07,59,16.30
2017,06,23,08,00,16.30
2017,06,23,08,01,16.30
2017,06,23,08,02,16.40
2017,06,23,08,03,16.40
2017,06,23,08,04,16.40
2017,06,23,08,05,16.40
2017,06,23,08,06,16.40
2017,06,23,08,07,16.40
2017,06,23,08,08,16.40
2017,06,23,08,09,16.40
2017,06,23,08,10,16.40
2017,06,23,08,11,16.50
2017,06,23,08,12,16.60
2017,06,23,08,13,16.60
2017,06,23,08,14,16.60
2017,06,23,08,15,16.60
2017,06,23,08,16,16.70
2017,06,23,08,17,16.70
2017,06,23,08,18,16.70
2017,06,23,08,19,16.70
2017,06,23,08,20,16.70
2017,06,23,08,21,16.70
2017,06,23,08,22,16.70
2017,06,23,08,23,16.70
2017,06,23,08,24,16.70
2017,06,23,08,25,16.70
2017,06,23,08,26,16.80
2017,06,23,08,27,16.80
2017,06,23,08,28,16.80
2017,06,23,08,29,16.90
2017,06,23,08,30,16.90
2017,06,23,08,31,17.00
2017,06,23,08,32,17.00
2017,06,23,08,33,17.10
2017,06,23,08,34,17.20
2017,06,23,08,35,17.30
2017,06,23,08,36,17.30
2017,06,23,08,37,17.30
2017,06,23,08,38,17.30
2017,06,23,08,39,17.40
2017,06,23,08,40,17.50
2017,06,23,08,41,17.50
2017,06,23,08,42,17.60
2017,06,23,08,43,17.70
2017,06,23,08,44,17.80
2017,06,23,08,45,17.80
2017,06,23,08,46,17.90
2017,06,23,08,47,17.90
2017,06,23,08,48,17.90
2017,06,23,08,49,17.90
2017,06,23,08,50,18.00
2017,06,23,08,51,18.10
2017,06,23,08,52,18.10
2017,06,23,08,53,18.20
2017,06,23,08,54,18.20
2017,06,23,08,55,18.20
2017,06,23,08,56,18.30
2017,06,23,08,57,18.30
2017,06,23,08,58,18.40
2017,06,23,08,59,18.40
2017,06,23,09,00,18.50
2017,06,23,09,01,18.50
2017,06,23,09,02,18.50
2017,06,23,09,03,18.50
2017,06,23,09,04,18.50
2017,06,23,09,05,18.50
2017,06,23,09,06,18.50
2017,06,23,09,07,18.50
2017,06,23,09,08,18.60
2017,06,23,09,09,18.60
2017,06,23,09,10,18.60
2017,06,23,09,11,18.70
2017,06,23,09,12,18.80
2017,06,23,09,13,18.80
2017,06,23,09,14,18.90
2017,06,23,09,15,18.90
2017,06,23,09,16,18.90
2017,06,23,09,17,19.00
2017,06,23,09,18,19.10
2017,06,23,09,19,19.10
2017,06,23,09,20,19.10
2017,06,23,09,21,19.20
2017,06,23,09,22,19.20
2017,06,23,09,23,19.20
2017,06,23,09,24,19.20
2017,06,23,09,25,19.20
2017,06,23,09,26,19.10
2017,06,23,09,27,19.10
2017,06,23,09,28,19.10
2017,06,23,09,29,19.10
2017,06,23,09,30,19.20
2017,06,23,09,31,19.20
2017,06,23,09,32,19.30
2017,06,23,09,33,19.30
2017,06,23,09,34,19.30
2017,06,23,09,35,19.40
2017,06,23,09,36,19.40
2017,06,23,09,37,19.40
2017,06,23,09,38,19.50
2017,06,23,09,39,19.50
2017,06,23,09,40,19.40
2017,06,23,09,41,19.40
2017,06,23,09,42,19.30
2017,06,23,09,43,19.30
2017,06,23,09,44,19.30
2017,06,23,09,45,19.40
2017,06,23,09,46,19.40
2017,06,23,09,47,19.50
2017,06,23,09,48,19.50
2017,06,23,09,49,19.60
2017,06,23,09,50,19.60
2017,06,23,09,51,19.70
2017,06,23,09,52,19.70
2017,06,23,09,53,19.80
2017,06,23,09,54,19.80
2017,06,23,09,55,19.90
2017,06,23,09,56,19.90
2017,06,23,09,57,19.90
2017,06,23,09,58,19.90
2017,06,23,09,59,19.90
2017,06,23,10,00,20.00
2017,06,23,10,01,20.10
2017,06,23,10,02,20.10
2017,06,23,10,03,20.10
2017,06,23,10,04,20.20
2017,06,23,10,05,20.20
2017,06,23,10,06,20.30
2017,06,23,10,07,20.30
2017,06,23,10,08,20.40
2017,06,23,10,09,20.40
2017,06,23,10,10,20.40
2017,06,23,10,11,20.40
2017,06,23,10,12,20.50
2017,06,23,10,13,20.40
2017,06,23,10,14,20.50
2017,06,23,10,15,20.50
2017,06,23,10,16,20.50
2017,06,23,10,17,20.40
2017,06,23,10,18,20.30
2017,06,23,10,19,20.30
2017,06,23,10,20,20.30
2017,06,23,10,21,20.20
2017,06,23,10,22,20.20
2017,06,23,10,23,20.20
2017,06,23,10,24,20.20
2017,06,23,10,25,20.30
2017,06,23,10,26,20.30
2017,06,23,10,27,20.20
2017,06,23,10,28,20.20
2017,06,23,10,29,20.20
2017,06,23,10,30,20.20
2017,06,23,10,31,20.30
2017,06,23,10,32,20.30
2017,06,23,10,33,20.30
2017,06,23,10,34,20.30
2017,06,23,10,35,20.40
2017,06,23,10,36,20.40
2017,06,23,10,37,20.40
2017,06,23,10,38,20.50
2017,06,23,10,39,20.50
2017,06,23,10,40,20.50
2017,06,23,10,41,20.60
2017,06,23,10,42,20.70
2017,06,23,10,43,20.70
2017,06,23,10,44,20.80
2017,06,23,10,45,20.80
2017,06,23,10,46,20.80
2017,06,23,10,47,20.80
2017,06,23,10,48,20.90
2017,06,23,10,49,20.90
2017,06,23,10,50,21.00
2017,06,23,10,51,21.00
2017,06,23,10,52,21.10
2017,06,23,10,53,21.10
2017,06,23,10,54,21.10
2017,06,23,10,55,21.20
2017,06,23,10,56,21.10
2017,06,23,10,57,21.10
2017,06,23,10,58,21.10
2017,06,23,10,59,21.10
2017,06,23,11,00,21.20
2017,06,23,11,01,21.20
2017,06,23,11,02,21.20
2017,06,23,11,03,21.20
2017,06,23,11,04,21.30
2017,06,23,11,05,21.30
2017,06,23,11,06,21.40
2017,06,23,11,07,21.50
2017,06,23,11,08,21.60
2017,06,23,11,09,21.70
2017,06,23,11,10,21.80
2017,06,23,11,11,21.80
2017,06,23,11,12,21.90
2017,06,23,11,13,21.90
2017,06,23,11,14,21.90
2017,06,23,11,15,21.90
2017,06,23,11,16,21.90
2017,06,23,11,17,21.90
2017,06,23,11,18,22.00
2017,06,23,11,19,22.00
2017,06,23,11,20,22.10
2017,06,23,11,21,22.20
2017,06,23,11,22,22.20
2017,06,23,11,23,22.30
2017,06,23,11,24,22.30
2017,06,23,11,25,22.30
2017,06,23,11,26,22.30
2017,06,23,11,27,22.20
2017,06,23,11,28,22.20
2017,06,23,11,29,22.20
2017,06,23,11,30,22.20
2017,06,23,11,31,22.20
2017,06,23,11,32,22.20
2017,06,23,11,33,22.10
2017,06,23,11,34,22.00
2017,06,23,11,35,22.00
2017,06,23,11,36,22.00
2017,06,23,11,37,22.00
2017,06,23,11,38,22.10
2017,06,23,11,39,22.10
2017,06,23,11,40,22.20
2017,06,23,11,41,22.20
2017,06,23,11,42,22.30
2017,06,23,11,43,22.30
2017,06,23,11,44,22.40
2017,06,23,11,45,22.50
2017,06,23,11,46,22.60
2017,06,23,11,47,22.70
2017,06,23,11,48,22.60
2017,06,23,11,49,22.60
2017,06,23,11,50,22.50
2017,06,23,11,51,22.50
2017,06,23,11,52,22.50
2017,06,23,11,53,22.50
2017,06,23,11,54,22.50
2017,06,23,11,55,22.60
2017,06,23,11,56,22.70
2017,06,23,11,57,22.80
2017,06,23,11,58,22.90
2017,06,23,11,59,22.90
2017,06,23,12,00,22.90
2017,06,23,12,01,23.00
2017,06,23,12,02,23.00
2017,06,23,12,03,22.90
2017,06,23,12,04,23.00
2017,06,23,12,05,23.10
2017,06,23,12,06,23.10
2017,06,23,12,07,23.10
2017,06,23,12,08,22.90
2017,06,23,12,09,22.90
2017,06,23,12,10,22.90
2017,06,23,12,11,22.90
2017,06,23,12,12,22.90
2017,06,23,12,13,23.00
2017,06,23,12,14,23.10
2017,06,23,12,15,23.20
2017,06,23,12,16,23.30
2017,06,23,12,17,23.30
2017,06,23,12,18,23.30
2017,06,23,12,19,23.30
2017,06,23,12,20,23.30
2017,06,23,12,21,23.20
2017,06,23,12,22,23.20
2017,06,23,12,23,23.20
2017,06,23,12,24,23.10
2017,06,23,12,25,23.10
2017,06,23,12,26,23.10
2017,06,23,12,27,23.00
2017,06,23,12,28,22.90
2017,06,23,12,29,23.00
2017,06,23,12,30,23.10
2017,06,23,12,31,23.10
2017,06,23,12,32,23.20
2017,06,23,12,33,23.20
2017,06,23,12,34,23.10
2017,06,23,12,35,23.00
2017,06,23,12,36,22.90
2017,06,23,12,37,22.90
2017,06,23,12,38,22.90
2017,06,23,12,39,22.90
2017,06,23,12,40,22.90
2017,06,23,12,41,22.90
2017,06,23,12,42,22.90
2017,06,23,12,43,23.00
2017,06,23,12,44,23.10
2017,06,23,12,45,23.10
2017,06,23,12,46,23.20
2017,06,23,12,47,23.20
2017,06,23,12,48,23.30
2017,06,23,12,49,23.30
2017,06,23,12,50,23.30
2017,06,23,12,51,23.30
2017,06,23,12,52,23.30
2017,06,23,12,53,23.40
2017,06,23,12,54,23.40
2017,06,23,12,55,23.60
2017,06,23,12,56,23.60
2017,06,23,12,57,23.50
2017,06,23,12,58,23.40
2017,06,23,12,59,23.40
2017,06,23,13,00,23.50
2017,06,23,13,01,23.60
2017,06,23,13,02,23.60
2017,06,23,13,03,23.70
2017,06,23,13,04,23.70
2017,06,23,13,05,23.70
2017,06,23,13,06,23.70
2017,06,23,13,07,23.70
2017,06,23,13,08,23.80
2017,06,23,13,09,23.80
2017,06,23,13,10,23.90
2017,06,23,13,11,23.90
2017,06,23,13,12,23.80
2017,06,23,13,13,23.70
2017,06,23,13,14,23.70
2017,06,23,13,15,23.70
2017,06,23,13,16,23.80
2017,06,23,13,17,23.90
2017,06,23,13,18,24.00
2017,06,23,13,19,24.10
2017,06,23,13,20,24.20
2017,06,23,13,21,24.30
2017,06,23,13,22,24.30
2017,06,23,13,23,24.20
2017,06,23,13,24,24.20
2017,06,23,13,25,24.20
2017,06,23,13,26,24.10
2017,06,23,13,27,24.10
2017,06,23,13,28,24.20
2017,06,23,13,29,24.30
2017,06,23,13,30,24.30
2017,06,23,13,31,24.30
2017,06,23,13,32,24.20
2017,06,23,13,33,24.20
2017,06,23,13,34,24.20
2017,06,23,13,35,24.20
2017,06,23,13,36,24.20
2017,06,23,13,37,24.20
2017,06,23,13,38,24.20
2017,06,23,13,39,24.20
2017,06,23,13,40,24.20
2017,06,23,13,41,24.10
2017,06,23,13,42,24.20
2017,06,23,13,43,24.30
2017,06,23,13,44,24.30
2017,06,23,13,45,24.40
2017,06,23,13,46,24.40
2017,06,23,13,47,24.50
2017,06,23,13,48,24.50
2017,06,23,13,49,24.50
2017,06,23,13,50,24.50
2017,06,23,13,51,24.50
2017,06,23,13,52,24.40
2017,06,23,13,53,24.40
2017,06,23,13,54,24.30
2017,06,23,13,55,24.30
2017,06,23,13,56,24.30
2017,06,23,13,57,24.30
2017,06,23,13,58,24.30
2017,06,23,13,59,24.40
2017,06,23,14,00,24.40
2017,06,23,14,01,24.40
2017,06,23,14,02,24.40
2017,06,23,14,03,24.40
2017,06,23,14,04,24.50
2017,06,23,14,05,24.50
2017,06,23,14,06,24.50
2017,06,23,14,07,24.60
2017,06,23,14,08,24.60
2017,06,23,14,09,24.50
2017,06,23,14,10,24.50
2017,06,23,14,11,24.50
2017,06,23,14,12,24.50
2017,06,23,14,13,24.50
2017,06,23,14,14,24.50
2017,06,23,14,15,24.50
2017,06,23,14,16,24.60
2017,06,23,14,17,24.80
2017,06,23,14,18,24.80
2017,06,23,14,19,24.90
2017,06,23,14,20,25.00
2017,06,23,14,21,25.10
2017,06,23,14,22,25.10
2017,06,23,14,23,25.20
2017,06,23,14,24,25.40
2017,06,23,14,25,25.40
2017,06,23,14,26,25.50
2017,06,23,14,27,25.50
2017,06,23,14,28,25.40
2017,06,23,14,29,25.50
2017,06,23,14,30,25.50
2017,06,23,14,31,25.40
2017,06,23,14,32,25.40
2017,06,23,14,33,25.40
2017,06,23,14,34,25.40
2017,06,23,14,35,25.40
2017,06,23,14,36,25.40
2017,06,23,14,37,25.50
2017,06,23,14,38,25.50
2017,06,23,14,39,25.50
2017,06,23,14,40,25.50
2017,06,23,14,41,25.40
2017,06,23,14,42,25.40
2017,06,23,14,43,25.40
2017,06,23,14,44,25.40
2017,06,23,14,45,25.40
2017,06,23,14,46,25.30
2017,06,23,14,47,25.40
2017,06,23,14,48,25.40
2017,06,23,14,49,25.50
2017,06,23,14,50,25.40
2017,06,23,14,51,25.40
2017,06,23,14,52,25.40
2017,06,23,14,53,25.50
2017,06,23,14,54,25.50
2017,06,23,14,55,25.40
2017,06,23,14,56,25.40
2017,06,23,14,57,25.50
2017,06,23,14,58,25.50
2017,06,23,14,59,25.60
2017,06,23,15,00,25.60
2017,06,23,15,01,25.60
2017,06,23,15,02,25.60
2017,06,23,15,03,25.60
2017,06,23,15,04,25.60
2017,06,23,15,05,25.60
2017,06,23,15,06,25.50
2017,06,23,15,07,25.40
2017,06,23,15,08,25.40
2017,06,23,15,09,25.30
2017,06,23,15,10,25.30
2017,06,23,15,11,25.30
2017,06,23,15,12,25.40
2017,06,23,15,13,25.50
2017,06,23,15,14,25.50
2017,06,23,15,15,25.50
2017,06,23,15,16,25.60
2017,06,23,15,17,25.60
2017,06,23,15,18,25.60
2017,06,23,15,19,25.60
2017,06,23,15,20,25.60
2017,06,23,15,21,25.60
2017,06,23,15,22,25.50
2017,06,23,15,23,25.50
2017,06,23,15,24,25.40
2017,06,23,15,25,25.40
2017,06,23,15,26,25.30
2017,06,23,15,27,25.30
2017,06,23,15,28,25.30
2017,06,23,15,29,25.20
2017,06,23,15,30,25.20
2017,06,23,15,31,25.20
2017,06,23,15,32,25.20
2017,06,23,15,33,25.30
2017,06,23,15,34,25.20
2017,06,23,15,35,25.20
2017,06,23,15,36,25.20
2017,06,23,15,37,25.20
2017,06,23,15,38,25.20
2017,06,23,15,39,25.10
2017,06,23,15,40,25.20
2017,06,23,15,41,25.20
2017,06,23,15,42,25.20
2017,06,23,15,43,25.20
2017,06,23,15,44,25.20
2017,06,23,15,45,25.30
2017,06,23,15,46,25.20
2017,06,23,15,47,25.20
2017,06,23,15,48,25.20
2017,06,23,15,49,25.20
2017,06,23,15,50,25.20
2017,06,23,15,51,25.10
2017,06,23,15,52,25.10
2017,06,23,15,53,25.00
2017,06,23,15,54,24.90
2017,06,23,15,55,24.90
2017,06,23,15,56,24.90
2017,06,23,15,57,24.80
2017,06,23,15,58,24.70
2017,06,23,15,59,24.70
2017,06,23,16,00,24.70
2017,06,23,16,01,24.60
2017,06,23,16,02,24.60
2017,06,23,16,03,24.60
2017,06,23,16,04,24.60
2017,06,23,16,05,24.60
2017,06,23,16,06,24.70
2017,06,23,16,07,24.70
2017,06,23,16,08,24.70
2017,06,23,16,09,24.70
2017,06,23,16,10,24.70
2017,06,23,16,11,24.70
2017,06,23,16,12,24.70
2017,06,23,16,13,24.70
2017,06,23,16,14,24.70
2017,06,23,16,15,24.70
2017,06,23,16,16,24.70
2017,06,23,16,17,24.70
2017,06,23,16,18,24.60
2017,06,23,16,19,24.60
2017,06,23,16,20,24.60
2017,06,23,16,21,24.60
2017,06,23,16,22,24.50
2017,06,23,16,23,24.50
2017,06,23,16,24,24.50
2017,06,23,16,25,24.50
2017,06,23,16,26,24.40
2017,06,23,16,27,24.40
2017,06,23,16,28,24.30
2017,06,23,16,29,24.20
2017,06,23,16,30,24.20
2017,06,23,16,31,24.20
2017,06,23,16,32,24.20
2017,06,23,16,33,24.20
2017,06,23,16,34,24.20
2017,06,23,16,35,24.20
2017,06,23,16,36,24.20
2017,06,23,16,37,24.20
2017,06,23,16,38,24.10
2017,06,23,16,39,24.10
2017,06,23,16,40,24.20
2017,06,23,16,41,24.10
2017,06,23,16,42,24.10
2017,06,23,16,43,24.10
2017,06,23,16,44,24.10
2017,06,23,16,45,24.10
2017,06,23,16,46,24.10
2017,06,23,16,47,24.10
2017,06,23,16,48,24.10
2017,06,23,16,49,24.10
2017,06,23,16,50,24.10
2017,06,23,16,51,24.10
2017,06,23,16,52,24.10
2017,06,23,16,53,24.00
2017,06,23,16,54,23.90
2017,06,23,16,55,23.90
2017,06,23,16,56,23.80
2017,06,23,16,57,23.80
2017,06,23,16,58,23.80
2017,06,23,16,59,23.70
2017,06,23,17,00,23.70
2017,06,23,17,01,23.70
2017,06,23,17,02,23.70
2017,06,23,17,03,23.70
2017,06,23,17,04,23.70
2017,06,23,17,05,23.70
2017,06,23,17,06,23.80
2017,06,23,17,07,23.80
2017,06,23,17,08,23.80
2017,06,23,17,09,23.70
2017,06,23,17,10,23.70
2017,06,23,17,11,23.70
2017,06,23,17,12,23.70
2017,06,23,17,13,23.70
2017,06,23,17,14,23.70
2017,06,23,17,15,23.70
2017,06,23,17,16,23.70
2017,06,23,17,17,23.70
2017,06,23,17,18,23.70
2017,06,23,17,19,23.70
2017,06,23,17,20,23.70
2017,06,23,17,21,23.70
2017,06,23,17,22,23.70
2017,06,23,17,23,23.70
2017,06,23,17,24,23.70
2017,06,23,17,25,23.60